ROMMA est une association bénévole à but non lucratif. Votre soutien est indispensable : ADHERER à ROMMA ou FAIRE un DON

Chambon - (38, Isère)

Oisans (2460 m)   Longitude: 06° 10' 42" E   Latitude: 45° 01' 32" N Station partenaire n°803
 

Détail journalier du     <<     >>

Température Humidité Vent Dir Rafale Dir. rafale Neige 1 Neige 2
Heure (°C) (%) (km/h) (km/h) (cm) (cm)
01:00 3.9776S13S03
02:00 4.1756S13SSO03
03:00 3.6733SE12SE03
04:00 3.5703N12N03
05:00 3.6713N11N03
06:00 3.6723E9SO02
07:00 3.18012SSO22SO03
08:00 3.28315SSO21SSO02
09:00 3.78111SSO18SSO03
10:00 4.77010SSO21SSO03
11:00 6.2588SSO18SSO02
12:00 5.75912SSO21SO03
13:00 5.95814SO23OSO03
14:00 6.16014SO22OSO03
15:00 6.16415OSO24OSO03
16:00 5.77018OSO26OSO03
17:00 4.07719OSO28OSO02
18:00 3.17913SO25SO02
19:00 2.5819SO15SO03
20:00 2.08613SSO20SSO03
21:00 1.98312SSO20SSO03
22:00 2.28210SSO17SSO03
23:00 2.38312OSO22OSO03
minuit 1.98714OSO21OSO04

Graphique du 30-10-2019

 

Serveur OMMA